www.pogodaiklimat.ru

Погода и климат >> Архив погоды >> Россия >> Новгородская область >> Крестцы


ПОГОДА в Крестцах

  • Прогноз погоды в Крестцах
  • Монитор погоды в Крестцах

АРХИВ ПОГОДЫ в Крестцах

Время (UTC), дата Ветер
(напр.,м/с)
 
Видим.   Явления Облачность Т
(С)
Тd
(С)
f
(%)
Тe
(С)
Тes
(С)
Комфортность P
(гПа)
Po
(гПа)
Тmin
(С)
Tmax
(С)
R
(мм)
R24
(мм)
S
(см)
18 9.02 Ю 3 20 км 10/10 400 м
[Sc]
+1.2 -0.7 87 -3 -3 1012.0 1004.0 +4.5
21 9.02 Ю 2 н/о н/о +1.0 -0.9 87 -2 -2 1010.7 1002.7
00 10.02 Ю 2 н/о н/о +0.6 -2.0 83 -3 -3 1009.7 1001.7
03 10.02 Ю 3 н/о н/о +0.6 -2.5 80 -4 -4 1008.4 1000.5 +0.4
06 10.02 Ю 2 10 км слаб. ливневой снег 10/10 450 м
[]
-0.7 -2.1 90 -5 -5 1008.2 1000.2 -0.7 0.4 36
09 10.02 Ю 2 н/о н/о -0.6 -2.8 85 -4 -4 1008.3 1000.3
12 10.02 Ю 2 н/о н/о +0.1 -2.7 81 -3 -3 1007.6 999.6
15 10.02 Ю 3 н/о н/о -0.5 -3.1 83 -5 -5 1007.5 999.5 0.6
18 10.02 Ю 2 20 км 10/10 450 м
[Cb calv]
-0.7 -2.8 86 -4 -4 1007.5 999.5 +0.2 1
21 10.02 Ю 2 н/о н/о -0.4 -2.4 86 -4 -4 1007.6 999.6
00 11.02 Ю 2 н/о н/о 0.0 -1.4 90 -4 -4 1007.6 999.6
03 11.02 ЮВ 2 н/о н/о +0.2 -0.9 92 -4 -4 1006.9 999.0 -0.8
06 11.02 ЮВ 2 20 км 10/0
[Ac As]
-0.4 -1.9 90 -4 -4 1005.5 997.5 -0.7 36
09 11.02 ЮВ 4 н/о н/о +2.0 -1.3 79 -3 -3 1004.7 996.8
12 11.02 Ю 4 н/о н/о +1.9 -0.1 87 -3 -3 1003.9 996.0
15 11.02 ЮВ 3 н/о н/о +1.3 +0.4 94 -3 -3 1003.1 995.2 1
18 11.02 Ю 3 4000 м слаб. снег 10/10 300 м
[Frnb Ns]
+0.6 0.0 96 -4 -4 1002.6 994.7 +3.2 2
21 11.02 Ю 3 н/о н/о +0.5 -0.6 92 -4 -4 1002.2 994.3
00 12.02 Ю 3 н/о н/о +0.3 -0.7 93 -4 -4 1001.2 993.3
03 12.02 Ю 3 н/о н/о +0.5 -0.2 95 -4 -4 1000.8 992.9 +0.2 1
06 12.02 Ю 2 4000 м слаб. снег 10/10 300 м
[Frnb Ns]
+0.6 +0.2 97 -3 -3 1001.0 993.1 +0.2 2 35
09 12.02 Ю 2 н/о н/о +1.6 +0.7 94 -2 -2 1001.5 993.6
12 12.02 Ю 2 н/о н/о +2.0 +0.7 91 -1 -1 1001.7 993.9
15 12.02 Ю 2 н/о н/о +1.2 +0.6 96 -2 -2 1002.9 995.0 0.7
18 12.02 ЮЗ 2 4000 м слаб. снег 10/10 300 м
[Frnb Ns]
+0.8 +0.5 98 -3 -3 1004.5 996.6 +2.1 0.7
21 12.02 З 3 н/о н/о -0.3 -0.8 96 -5 -5 1007.8 999.8
00 13.02 З 3 н/о н/о -1.9 -4.0 86 -7 -7 1010.5 1002.5
03 13.02 СЗ 3 н/о н/о -3.0 -5.7 82 -8 -8 1011.7 1003.6 -3.0 0.3
06 13.02 З 2 20 км 9/9 630 м
[Sc]
-3.9 -6.5 82 -8 -8 1011.7 1003.6 -3.9 0.6 35
09 13.02 З 3 н/о н/о -3.9 -6.6 81 -9 -9 1012.1 1004.0
12 13.02 З 2 н/о н/о -3.2 -7.3 73 -7 -7 1012.2 1004.1
15 13.02 Ю 1 н/о н/о -4.9 -7.3 83 -7 -7 1012.9 1004.8
18 13.02 штиль 0 20 км ясно -10.4 -10.7 98 -11 -11 1014.6 1006.3 -2.6
21 13.02 ЮВ 1 н/о н/о -9.8 -10.5 95 -12 -12 1015.7 1007.4
00 14.02 штиль 0 н/о н/о -8.3 -8.8 96 -9 -9 1017.1 1008.8
03 14.02 Ю 1 н/о н/о -5.2 -6.1 93 -8 -8 1016.8 1008.6 -10.6
06 14.02 Ю 1 20 км 10/10 400 м
[Sc]
-3.9 -5.2 91 -6 -6 1018.4 1010.2 -10.6 35
09 14.02 ЮЗ 2 н/о н/о -1.5 -2.9 90 -5 -5 1020.0 1011.9
12 14.02 ЮЗ 2 н/о н/о +0.2 -0.4 96 -4 -4 1020.6 1012.5
15 14.02 ЮЗ 2 н/о н/о +0.3 +0.1 99 -4 -4 1021.6 1013.5 0.5
18 14.02 ЮЗ 2 10 км слаб. снег 10/10 240 м
[Frnb Ns]
+0.3 +0.1 99 -4 -4 1020.9 1012.9 +0.6 1
21 14.02 ЮЗ 3 н/о н/о +0.3 -0.4 95 -5 -5 1018.8 1010.8
00 15.02 ЮЗ 4 н/о н/о +0.7 -0.5 92 -5 -5 1015.5 1007.5
03 15.02 З 4 н/о н/о +1.6 +1.2 97 -4 -4 1013.9 1005.9 +0.2 0.6
06 15.02 З 4
{12}
20 км 10/10 300 м
[St]
+2.0 +1.7 98 -3 -3 1013.3 1005.4 +0.2 0.4 34
09 15.02 З 4 н/о н/о +3.6 +0.9 82 -1 -1 1013.6 1005.7
12 15.02 З 4
{12}
н/о н/о +4.3 +0.4 76 0 0 1013.1 1005.2
15 15.02 З 4 н/о н/о +3.9 -0.7 72 -0 -0 1013.1 1005.2 0.3
18 15.02 З 5 20 км 8/0
[Ci fib]
+3.7 -0.9 72 -1 -1 1013.1 1005.2 +5.0
21 15.02 З 4 н/о н/о +2.8 +0.3 84 -2 -2 1014.3 1006.4
00 16.02 З 2 н/о н/о +1.4 +0.2 92 -2 -2 1015.2 1007.2
03 16.02 ЮЗ 1 н/о н/о -1.6 -1.7 99 -4 -4 1015.8 1007.7 -1.9
06 16.02 ЮЗ 2 4000 м дымка 10/10 240 м
[St]
+1.4 +1.3 99 -2 -2 1015.4 1007.4 -1.9 30
09 16.02 ЮЗ 4 н/о н/о +1.2 +0.8 97 -4 -4 1014.5 1006.5
12 16.02 ЮЗ 2 н/о н/о +3.2 +1.5 89 0 0 1010.7 1002.8
15 16.02 Ю 2 н/о н/о +3.2 +0.4 82 0 0 1007.4 999.5

 

Местоположение метеостанции Крестцы (Новгородская область, Россия): широта 58.27 долгота 32.52 высота над уровнем моря 63 м.

В архиве по умолчанию представлена погода в Крестцах за последнюю неделю. Архивные данные за месяц целиком и за предыдущие месяцы, начиная с января 2011 года, Вы можете получить, выбрав интересующий диапазон дат из раскрывающегося списка и нажав кнопку "Ввод!".


*Определитесь, кто Вы:
робот инопланетянин человек

Внимание! Время в таблицах - всемирное. Для получения местного времени необходимо прибавить поправку, которая равна 3 ч.

Смотрите также архив погоды в соседних городах и на ближайших метеорологических станциях:

Погода в Окуловке (Новгородская область, Россия) (48 км)
Погода в Валдае (Новгородская область, Россия) (53 км)
Погода в Демянске (Новгородская область, Россия) (69 км)
Погода в Старой Руссе (Новгородская область, Россия) (76 км)
Погода в Великом Новгороде (Новгородская область, Россия) (79 км)
Погода в Боровичах (Новгородская область, Россия) (82 км)
Погода в Бологом (Тверская область, Россия) (99 км)
Погода в Осташкове (Тверская область, Россия) (134 км)
Погода в Киришах (Ленинградская область, Россия) (134 км)
Погода в Любани (Ленинградская область, Россия) (141 км)

Пояснения к столбцам:

Ветер - указаны скорость ветра в м/с - средняя за 10 мин, порывы в срок и между сроками (в фигурных скобках) и направление, откуда дует ветер: С - северный, СВ - северо-восточный, В - восточный, ЮВ - юго-восточный, Ю - южный, ЮЗ - юго-западный, З - западный, СЗ - северо-западный.
Видимость - горизонтальная дальность видимости в метрах или километрах. При видимости от 1 до 10 км при отсутствии осадков обычно наблюдается дымка, при ухудшении видимости до 1 км и менее - туман. В сухую погоду видимость может ухудшаться дымом, пылью или мглою.
Явления - указаны атмосферные явления, наблюдавшиеся в срок или в последний час перед сроком; фигурными скобками обозначены явления, наблюдавшиеся между сроками (за 1-3 часа до срока); квадратными скобками обозначены град или гололедные отложения с указанием их диаметра в мм.
Облачность - указаны через наклонную черту общая и нижняя облачность в баллах и высота нижней границы облаков в метрах; квадратными скобками обозначены формы облаков: Ci - перистые, Cs - перисто-слоистые, Cc - перисто-кучевые, Ac - высококучевые, As - высокослоистые, Sc - слоисто-кучевые, Ns - слоисто-дождевые, Cu - кучевые, Cb - кучево-дождевые. Подробнее классификацию облаков см. в Атласе облаков (PDF).
T - Температура воздуха - температура, измеренная на высоте 2 м над землей.
Td - Температура точки росы - температура, при понижении до которой содержащийся в воздухе водяной пар достигнет насыщения.
f - Относительная влажность воздуха - влажноcть воздуха, измеренная на высоте 2 м над землей.
Te - Эффективная температура - температура, которую ощущает одетый по сезону человек в тени. Характеристика душности погоды. При расчете учитывается влияние влажности воздуха и скорости ветра на теплоощущения человека.
Tes - Эффективная температура на солнце - температура, которую ощущает человек, с поправкой на солнечный нагрев. Характеристика знойности погоды. Зависит от высоты солнца над горизонтом, облачности и скорости ветра. Ночью, в пасмурную погоду, а также при ветре 12 м/с и более поправка равна нулю.
P - Атмосферное давление - приведенное к уровню моря атмосферное давление.
Po - Атмосферное давление - измеренное на уровне метеостанции атмосферное давление.
Tmin - Минимальная температура - минимум температуры воздуха на высоте 2 м над землей.
Tmax - Максимальная температура - максимум температуры воздуха на высоте 2 м над землей.
R - Количество осадков - Количество выпавших осадков за период времени, мм. При наведении курсора мыши на число - период времени, за который выпало указанное количество осадков.
R24 - Количество осадков - Количество выпавших осадков за 24 часа, мм.
S - Снежный покров - Высота снежного покрова, см. При наведении курсора мыши на число - состояние снежного покрова и степень покрытия местности в баллах.